Roanoke, VA

3:14 PM EDT on October 18, 2019 (GMT -0400)
Roanoke Regional-Woodrum

Weather History for KROA - August, 2019

Change the Weather History Date:

Wednesday, August 21, 2019

  Actual Average Record
Temperature  
Mean Temperature 83 °F 75 °F  
Max Temperature 95 °F 86 °F 105 °F (1983)
Min Temperature 70 °F 65 °F 49 °F (1918)
Degree Days  
Heating Degree Days 0 0  
Month to date heating degree days 0 0  
Since 1 June heating degree days 0 11  
Since 1 July heating degree days 0 0  
Cooling Degree Days 18 10  
Month to date cooling degree days 300 229  
Year to date cooling degree days 1283 952  
Since 1 June cooling degree days 1004 836  
Growing Degree Days 32 (Base 50)    
Moisture  
Dew Point 67 °F    
Average Humidity 68    
Maximum Humidity 97    
Minimum Humidity 39    
Precipitation  
Precipitation 0.00 in 0.11 in 1.73 in (1960)
Month to date precipitation 1.15 2.36  
Year to date precipitation 28.72 26.93  
Snow  
Snow 0.00 in - - ()
Month to date snowfall 0.0  
Since 1 June snowfall T  
Since 1 July snowfall T  
Snow Depth 0.00 in    
Sea Level Pressure  
Sea Level Pressure 30.00 in    
Wind  
Wind Speed 5 mph (WSW)    
Max Wind Speed 17 mph    
Max Gust Speed 22 mph    
Visibility 10 miles    
Events      
T = Trace of Precipitation, MM = Missing Value Source: NWS Daily Summary

Daily Weather History Graph

Daily Weather History Graph

Search for Another Location

Airport or City:

Astronomy

Aug. 21, 2019 Rise Set
Actual Time 6:41 AM EDT 8:04 PM EDT
Civil Twilight 6:13 AM EDT 8:31 PM EDT
Nautical Twilight 5:40 AM EDT 9:04 PM EDT
Astronomical Twilight 5:06 AM EDT 9:38 PM EDT
Moon 11:28 PM EDT (8/21) 12:08 PM EDT (8/21)
Length of Visible Light 14h 18m
Length of Day
13h 23m
Waning Gibbous, 69% of the Moon is Illuminated
Aug 21
Waning Gibbous
Aug 23
Last Quarter
Aug 30
New
Sep 5
First Quarter
Sep 14
Full

Hourly Weather History & Observations

Time (EDT) Temp. Heat Index Dew Point Humidity Pressure Visibility Wind Dir Wind Speed Gust Speed Precip Events Conditions
12:54 AM 73.9 °F - 69.1 °F 85% 30.07 in 10.0 mi SE 3.5 mph - N/A   Clear
1:54 AM 72.0 °F - 69.1 °F 91% 30.07 in 10.0 mi Calm Calm - N/A   Clear
2:54 AM 73.0 °F - 69.1 °F 87% 30.04 in 10.0 mi NNW 5.8 mph - N/A   Clear
3:54 AM 70.0 °F - 68.0 °F 93% 30.05 in 10.0 mi West 3.5 mph - N/A   Clear
4:54 AM 70.0 °F - 68.0 °F 93% 30.04 in 10.0 mi Calm Calm - N/A   Scattered Clouds
5:02 AM 71.1 °F - 68.0 °F 90% 30.07 in 10.0 mi Calm Calm - N/A   Mostly Cloudy
5:54 AM 71.1 °F - 66.9 °F 87% 30.03 in 10.0 mi WNW 3.5 mph - N/A   Scattered Clouds
6:54 AM 71.1 °F - 68.0 °F 90% 30.03 in 10.0 mi South 3.5 mph - N/A   Mostly Cloudy
7:54 AM 72.0 °F - 68.0 °F 87% 30.03 in 10.0 mi SSW 3.5 mph - N/A   Scattered Clouds
8:54 AM 77.0 °F - 68.0 °F 74% 30.02 in 10.0 mi WSW 6.9 mph - N/A   Clear
9:54 AM 80.1 °F 82.7 °F 68.0 °F 67% 30.01 in 10.0 mi WSW 5.8 mph - N/A   Clear
10:54 AM 84.0 °F 87.0 °F 68.0 °F 58% 30.02 in 10.0 mi West 6.9 mph - N/A   Partly Cloudy
11:54 AM 86.0 °F 88.8 °F 66.9 °F 53% 30.02 in 10.0 mi SW 8.1 mph - N/A   Partly Cloudy
12:54 PM 90.0 °F 92.8 °F 66.9 °F 46% 30.00 in 10.0 mi South 8.1 mph - N/A   Partly Cloudy
1:54 PM 91.9 °F 94.1 °F 64.9 °F 41% 29.98 in 10.0 mi SSW 9.2 mph - N/A   Partly Cloudy
2:54 PM 93.9 °F 95.6 °F 64.0 °F 37% 29.96 in 10.0 mi Variable 6.9 mph - N/A   Partly Cloudy
3:52 PM 93.2 °F 96.2 °F 66.2 °F 41% 29.98 in 10.0 mi SW 11.5 mph 18.4 mph N/A   Mostly Cloudy
3:54 PM 93.0 °F 95.9 °F 66.0 °F 41% 29.93 in 10.0 mi SSW 12.7 mph 18.4 mph N/A   Mostly Cloudy
4:54 PM 93.0 °F 95.0 °F 64.9 °F 39% 29.93 in 10.0 mi SW 13.8 mph - N/A   Scattered Clouds
5:54 PM 93.0 °F 95.9 °F 66.0 °F 41% 29.92 in 10.0 mi WSW 9.2 mph - N/A   Mostly Cloudy
6:54 PM 91.9 °F 94.5 °F 66.0 °F 42% 29.91 in 10.0 mi SW 9.2 mph - N/A   Scattered Clouds
7:54 PM 89.1 °F 90.3 °F 64.0 °F 43% 29.93 in 10.0 mi West 5.8 mph - N/A   Mostly Cloudy
8:54 PM 84.0 °F 84.9 °F 63.0 °F 49% 29.95 in 10.0 mi NNW 5.8 mph - N/A   Scattered Clouds
9:54 PM 82.0 °F 84.5 °F 66.9 °F 60% 29.97 in 10.0 mi West 4.6 mph - N/A   Scattered Clouds
10:54 PM 80.1 °F 82.3 °F 66.9 °F 64% 29.98 in 10.0 mi Calm Calm - N/A   Clear
11:54 PM 79.0 °F - 66.9 °F 66% 30.00 in 10.0 mi SW 3.5 mph - N/A   Clear